iso_date,epoch_date,Year,Hour,Min,DOY,POS_DOY,Lat,Lon,BP,Ts,Ta,has_bp,has_ts,has_ta,BuoyID,Buoy_Type,Buoy_Owner,Logistics,Hemisphere
2019-04-20T06:00:00Z,1555740000,2019,6,0,110.25,110.25,-65.975,29.971,-999.00,-0.88,-999.0,no,yes,no,300234066615940,SVP3GI,AOML,THOMAS_THOMPSON,South
2019-04-20T07:00:28Z,1555743629,2019,7,0,110.292,110.292,-65.983,29.968,-999.00,-0.88,-999.0,no,yes,no,300234066615940,SVP3GI,AOML,THOMAS_THOMPSON,South
2019-04-20T07:59:31Z,1555747171,2019,8,0,110.333,110.333,-65.99,29.975,-999.00,-0.88,-999.0,no,yes,no,300234066615940,SVP3GI,AOML,THOMAS_THOMPSON,South
2019-04-20T09:00:00Z,1555750800,2019,9,0,110.375,110.375,-65.994,29.987,-999.00,-0.88,-999.0,no,yes,no,300234066615940,SVP3GI,AOML,THOMAS_THOMPSON,South
2019-04-20T10:00:28Z,1555754429,2019,10,0,110.417,110.417,-65.994,30.002,-999.00,-0.88,-999.0,no,yes,no,300234066615940,SVP3GI,AOML,THOMAS_THOMPSON,South
2019-04-20T10:59:31Z,1555757971,2019,11,0,110.458,110.458,-65.993,30.013,-999.00,-0.85,-999.0,no,yes,no,300234066615940,SVP3GI,AOML,THOMAS_THOMPSON,South
2019-04-20T12:00:00Z,1555761600,2019,12,0,110.5,110.5,-65.99,30.023,-999.00,-0.88,-999.0,no,yes,no,300234066615940,SVP3GI,AOML,THOMAS_THOMPSON,South
2019-04-20T13:00:28Z,1555765229,2019,13,0,110.542,110.542,-65.986,30.025,-999.00,-0.88,-999.0,no,yes,no,300234066615940,SVP3GI,AOML,THOMAS_THOMPSON,South
2019-04-20T13:59:31Z,1555768771,2019,14,0,110.583,110.583,-65.981,30.02,-999.00,-0.88,-999.0,no,yes,no,300234066615940,SVP3GI,AOML,THOMAS_THOMPSON,South
2019-04-20T15:00:00Z,1555772400,2019,15,0,110.625,110.625,-65.978,30.008,-999.00,-0.88,-999.0,no,yes,no,300234066615940,SVP3GI,AOML,THOMAS_THOMPSON,South
2019-04-20T16:00:28Z,1555776029,2019,16,0,110.667,110.667,-65.977,29.993,-999.00,-0.88,-999.0,no,yes,no,300234066615940,SVP3GI,AOML,THOMAS_THOMPSON,South
2019-04-20T16:59:31Z,1555779571,2019,17,0,110.708,110.708,-65.979,29.978,-999.00,-0.88,-999.0,no,yes,no,300234066615940,SVP3GI,AOML,THOMAS_THOMPSON,South
2019-04-20T18:00:00Z,1555783200,2019,18,0,110.75,110.75,-65.982,29.966,-999.00,-0.88,-999.0,no,yes,no,300234066615940,SVP3GI,AOML,THOMAS_THOMPSON,South
2019-04-20T19:00:28Z,1555786829,2019,19,0,110.792,110.792,-65.987,29.959,-999.00,-0.88,-999.0,no,yes,no,300234066615940,SVP3GI,AOML,THOMAS_THOMPSON,South
2019-04-20T19:59:31Z,1555790371,2019,20,0,110.833,110.833,-65.994,29.959,-999.00,-0.92,-999.0,no,yes,no,300234066615940,SVP3GI,AOML,THOMAS_THOMPSON,South
2019-04-20T21:00:00Z,1555794000,2019,21,0,110.875,110.875,-66.0,29.966,-999.00,-0.92,-999.0,no,yes,no,300234066615940,SVP3GI,AOML,THOMAS_THOMPSON,South
2019-04-20T22:00:28Z,1555797629,2019,22,0,110.917,110.917,-66.004,29.979,-999.00,-0.92,-999.0,no,yes,no,300234066615940,SVP3GI,AOML,THOMAS_THOMPSON,South
2019-04-20T22:59:31Z,1555801171,2019,23,0,110.958,110.958,-66.004,29.992,-999.00,-0.92,-999.0,no,yes,no,300234066615940,SVP3GI,AOML,THOMAS_THOMPSON,South
2019-04-21T00:00:00Z,1555804800,2019,0,0,111.0,111.0,-66.003,30.006,-999.00,-0.92,-999.0,no,yes,no,300234066615940,SVP3GI,AOML,THOMAS_THOMPSON,South
2019-04-21T01:00:28Z,1555808429,2019,1,0,111.042,111.042,-65.998,30.02,-999.00,-0.92,-999.0,no,yes,no,300234066615940,SVP3GI,AOML,THOMAS_THOMPSON,South
2019-04-21T01:59:31Z,1555811971,2019,2,0,111.083,111.083,-65.992,30.029,-999.00,-0.92,-999.0,no,yes,no,300234066615940,SVP3GI,AOML,THOMAS_THOMPSON,South
2019-04-21T03:00:00Z,1555815600,2019,3,0,111.125,111.125,-65.985,30.029,-999.00,-0.88,-999.0,no,yes,no,300234066615940,SVP3GI,AOML,THOMAS_THOMPSON,South
2019-04-21T04:00:28Z,1555819229,2019,4,0,111.167,111.167,-65.978,30.021,-999.00,-0.92,-999.0,no,yes,no,300234066615940,SVP3GI,AOML,THOMAS_THOMPSON,South
2019-04-21T04:59:31Z,1555822771,2019,5,0,111.208,111.208,-65.976,30.007,-999.00,-0.92,-999.0,no,yes,no,300234066615940,SVP3GI,AOML,THOMAS_THOMPSON,South
2019-04-21T06:00:00Z,1555826400,2019,6,0,111.25,111.25,-65.976,29.993,-999.00,-0.95,-999.0,no,yes,no,300234066615940,SVP3GI,AOML,THOMAS_THOMPSON,South
2019-04-21T07:00:28Z,1555830029,2019,7,0,111.292,111.292,-65.979,29.98,-999.00,-0.92,-999.0,no,yes,no,300234066615940,SVP3GI,AOML,THOMAS_THOMPSON,South
2019-04-21T07:59:31Z,1555833571,2019,8,0,111.333,111.333,-65.983,29.973,-999.00,-0.92,-999.0,no,yes,no,300234066615940,SVP3GI,AOML,THOMAS_THOMPSON,South
2019-04-21T09:00:00Z,1555837200,2019,9,0,111.375,111.375,-65.988,29.971,-999.00,-0.92,-999.0,no,yes,no,300234066615940,SVP3GI,AOML,THOMAS_THOMPSON,South
2019-04-21T10:00:28Z,1555840829,2019,10,0,111.417,111.417,-65.993,29.979,-999.00,-0.92,-999.0,no,yes,no,300234066615940,SVP3GI,AOML,THOMAS_THOMPSON,South
2019-04-21T10:59:31Z,1555844371,2019,11,0,111.458,111.458,-65.996,29.99,-999.00,-0.92,-999.0,no,yes,no,300234066615940,SVP3GI,AOML,THOMAS_THOMPSON,South
2019-04-21T12:00:00Z,1555848000,2019,12,0,111.5,111.5,-65.995,30.002,-999.00,-0.92,-999.0,no,yes,no,300234066615940,SVP3GI,AOML,THOMAS_THOMPSON,South
2019-04-21T13:00:28Z,1555851629,2019,13,0,111.542,111.542,-65.993,30.012,-999.00,-0.92,-999.0,no,yes,no,300234066615940,SVP3GI,AOML,THOMAS_THOMPSON,South
2019-04-21T13:59:31Z,1555855171,2019,14,0,111.583,111.583,-65.988,30.016,-999.00,-0.92,-999.0,no,yes,no,300234066615940,SVP3GI,AOML,THOMAS_THOMPSON,South
2019-04-21T15:00:00Z,1555858800,2019,15,0,111.625,111.625,-65.984,30.013,-999.00,-0.92,-999.0,no,yes,no,300234066615940,SVP3GI,AOML,THOMAS_THOMPSON,South
2019-04-21T16:00:28Z,1555862429,2019,16,0,111.667,111.667,-65.979,30.006,-999.00,-0.92,-999.0,no,yes,no,300234066615940,SVP3GI,AOML,THOMAS_THOMPSON,South
2019-04-21T16:59:31Z,1555865971,2019,17,0,111.708,111.708,-65.975,29.994,-999.00,-0.92,-999.0,no,yes,no,300234066615940,SVP3GI,AOML,THOMAS_THOMPSON,South
2019-04-21T18:00:00Z,1555869600,2019,18,0,111.75,111.75,-65.974,29.974,-999.00,-0.88,-999.0,no,yes,no,300234066615940,SVP3GI,AOML,THOMAS_THOMPSON,South
2019-04-21T19:00:28Z,1555873229,2019,19,0,111.792,111.792,-65.976,29.959,-999.00,-0.88,-999.0,no,yes,no,300234066615940,SVP3GI,AOML,THOMAS_THOMPSON,South
2019-04-21T19:59:31Z,1555876771,2019,20,0,111.833,111.833,-65.981,29.942,-999.00,-0.88,-999.0,no,yes,no,300234066615940,SVP3GI,AOML,THOMAS_THOMPSON,South
2019-04-21T21:00:00Z,1555880400,2019,21,0,111.875,111.875,-65.987,29.933,-999.00,-0.85,-999.0,no,yes,no,300234066615940,SVP3GI,AOML,THOMAS_THOMPSON,South
2019-04-21T22:00:28Z,1555884029,2019,22,0,111.917,111.917,-65.992,29.933,-999.00,-0.88,-999.0,no,yes,no,300234066615940,SVP3GI,AOML,THOMAS_THOMPSON,South
2019-04-21T22:59:31Z,1555887571,2019,23,0,111.958,111.958,-65.999,29.936,-999.00,-0.88,-999.0,no,yes,no,300234066615940,SVP3GI,AOML,THOMAS_THOMPSON,South
2019-04-22T00:00:00Z,1555891200,2019,0,0,112.0,112.0,-66.003,29.943,-999.00,-0.88,-999.0,no,yes,no,300234066615940,SVP3GI,AOML,THOMAS_THOMPSON,South
2019-04-22T01:00:28Z,1555894829,2019,1,0,112.042,112.042,-66.004,29.954,-999.00,-0.88,-999.0,no,yes,no,300234066615940,SVP3GI,AOML,THOMAS_THOMPSON,South
2019-04-22T01:59:31Z,1555898371,2019,2,0,112.083,112.083,-66.004,29.962,-999.00,-0.88,-999.0,no,yes,no,300234066615940,SVP3GI,AOML,THOMAS_THOMPSON,South
2019-04-22T03:00:00Z,1555902000,2019,3,0,112.125,112.125,-66.0,29.966,-999.00,-0.88,-999.0,no,yes,no,300234066615940,SVP3GI,AOML,THOMAS_THOMPSON,South
2019-04-22T04:00:28Z,1555905629,2019,4,0,112.167,112.167,-65.996,29.963,-999.00,-0.88,-999.0,no,yes,no,300234066615940,SVP3GI,AOML,THOMAS_THOMPSON,South
2019-04-22T04:59:31Z,1555909171,2019,5,0,112.208,112.208,-65.991,29.951,-999.00,-0.88,-999.0,no,yes,no,300234066615940,SVP3GI,AOML,THOMAS_THOMPSON,South
2019-04-22T06:00:00Z,1555912800,2019,6,0,112.25,112.25,-65.988,29.93,-999.00,-0.88,-999.0,no,yes,no,300234066615940,SVP3GI,AOML,THOMAS_THOMPSON,South
2019-04-22T07:00:28Z,1555916429,2019,7,0,112.292,112.292,-65.986,29.912,-999.00,-0.88,-999.0,no,yes,no,300234066615940,SVP3GI,AOML,THOMAS_THOMPSON,South
2019-04-22T07:59:31Z,1555919971,2019,8,0,112.333,112.333,-65.987,29.892,-999.00,-0.88,-999.0,no,yes,no,300234066615940,SVP3GI,AOML,THOMAS_THOMPSON,South
2019-04-22T09:00:00Z,1555923600,2019,9,0,112.375,112.375,-65.992,29.872,-999.00,-0.88,-999.0,no,yes,no,300234066615940,SVP3GI,AOML,THOMAS_THOMPSON,South
2019-04-22T10:00:28Z,1555927229,2019,10,0,112.417,112.417,-65.998,29.859,-999.00,-0.88,-999.0,no,yes,no,300234066615940,SVP3GI,AOML,THOMAS_THOMPSON,South
2019-04-22T10:59:31Z,1555930771,2019,11,0,112.458,112.458,-66.005,29.854,-999.00,-0.88,-999.0,no,yes,no,300234066615940,SVP3GI,AOML,THOMAS_THOMPSON,South
2019-04-22T12:00:00Z,1555934400,2019,12,0,112.5,112.5,-66.011,29.854,-999.00,-0.88,-999.0,no,yes,no,300234066615940,SVP3GI,AOML,THOMAS_THOMPSON,South
2019-04-22T13:00:28Z,1555938029,2019,13,0,112.542,112.542,-66.014,29.861,-999.00,-0.88,-999.0,no,yes,no,300234066615940,SVP3GI,AOML,THOMAS_THOMPSON,South
2019-04-22T13:59:31Z,1555941571,2019,14,0,112.583,112.583,-66.015,29.867,-999.00,-0.88,-999.0,no,yes,no,300234066615940,SVP3GI,AOML,THOMAS_THOMPSON,South
2019-04-22T15:00:00Z,1555945200,2019,15,0,112.625,112.625,-66.014,29.873,-999.00,-0.92,-999.0,no,yes,no,300234066615940,SVP3GI,AOML,THOMAS_THOMPSON,South
2019-04-22T16:00:28Z,1555948829,2019,16,0,112.667,112.667,-66.011,29.877,-999.00,-0.92,-999.0,no,yes,no,300234066615940,SVP3GI,AOML,THOMAS_THOMPSON,South
2019-04-22T16:59:31Z,1555952371,2019,17,0,112.708,112.708,-66.008,29.876,-999.00,-0.92,-999.0,no,yes,no,300234066615940,SVP3GI,AOML,THOMAS_THOMPSON,South
2019-04-22T18:00:00Z,1555956000,2019,18,0,112.75,112.75,-66.003,29.87,-999.00,-0.92,-999.0,no,yes,no,300234066615940,SVP3GI,AOML,THOMAS_THOMPSON,South
2019-04-22T19:00:28Z,1555959629,2019,19,0,112.792,112.792,-66.0,29.858,-999.00,-0.92,-999.0,no,yes,no,300234066615940,SVP3GI,AOML,THOMAS_THOMPSON,South
2019-04-22T19:59:31Z,1555963171,2019,20,0,112.833,112.833,-65.999,29.847,-999.00,-0.92,-999.0,no,yes,no,300234066615940,SVP3GI,AOML,THOMAS_THOMPSON,South
2019-04-22T21:00:00Z,1555966800,2019,21,0,112.875,112.875,-66.0,29.836,-999.00,-0.92,-999.0,no,yes,no,300234066615940,SVP3GI,AOML,THOMAS_THOMPSON,South
2019-04-22T22:00:28Z,1555970429,2019,22,0,112.917,112.917,-66.002,29.826,-999.00,-0.92,-999.0,no,yes,no,300234066615940,SVP3GI,AOML,THOMAS_THOMPSON,South
2019-04-22T22:59:31Z,1555973971,2019,23,0,112.958,112.958,-66.007,29.821,-999.00,-0.92,-999.0,no,yes,no,300234066615940,SVP3GI,AOML,THOMAS_THOMPSON,South
2019-04-23T00:00:00Z,1555977600,2019,0,0,113.0,113.0,-66.012,29.822,-999.00,-0.92,-999.0,no,yes,no,300234066615940,SVP3GI,AOML,THOMAS_THOMPSON,South
2019-04-23T01:00:28Z,1555981229,2019,1,0,113.042,113.042,-66.015,29.83,-999.00,-0.92,-999.0,no,yes,no,300234066615940,SVP3GI,AOML,THOMAS_THOMPSON,South
2019-04-23T01:59:31Z,1555984771,2019,2,0,113.083,113.083,-66.018,29.841,-999.00,-0.92,-999.0,no,yes,no,300234066615940,SVP3GI,AOML,THOMAS_THOMPSON,South
2019-04-23T03:00:00Z,1555988400,2019,3,0,113.125,113.125,-66.02,29.849,-999.00,-0.92,-999.0,no,yes,no,300234066615940,SVP3GI,AOML,THOMAS_THOMPSON,South
2019-04-23T04:00:28Z,1555992029,2019,4,0,113.167,113.167,-66.019,29.859,-999.00,-0.92,-999.0,no,yes,no,300234066615940,SVP3GI,AOML,THOMAS_THOMPSON,South
2019-04-23T04:59:31Z,1555995571,2019,5,0,113.208,113.208,-66.017,29.866,-999.00,-0.92,-999.0,no,yes,no,300234066615940,SVP3GI,AOML,THOMAS_THOMPSON,South
2019-04-23T06:00:00Z,1555999200,2019,6,0,113.25,113.25,-66.014,29.866,-999.00,-0.92,-999.0,no,yes,no,300234066615940,SVP3GI,AOML,THOMAS_THOMPSON,South
2019-04-23T07:00:28Z,1556002829,2019,7,0,113.292,113.292,-66.011,29.861,-999.00,-0.92,-999.0,no,yes,no,300234066615940,SVP3GI,AOML,THOMAS_THOMPSON,South
2019-04-23T07:59:31Z,1556006371,2019,8,0,113.333,113.333,-66.008,29.853,-999.00,-0.92,-999.0,no,yes,no,300234066615940,SVP3GI,AOML,THOMAS_THOMPSON,South
2019-04-23T09:00:00Z,1556010000,2019,9,0,113.375,113.375,-66.006,29.839,-999.00,-0.92,-999.0,no,yes,no,300234066615940,SVP3GI,AOML,THOMAS_THOMPSON,South
2019-04-23T10:00:28Z,1556013629,2019,10,0,113.417,113.417,-66.006,29.824,-999.00,-0.92,-999.0,no,yes,no,300234066615940,SVP3GI,AOML,THOMAS_THOMPSON,South
2019-04-23T10:59:31Z,1556017171,2019,11,0,113.458,113.458,-66.008,29.809,-999.00,-0.92,-999.0,no,yes,no,300234066615940,SVP3GI,AOML,THOMAS_THOMPSON,South
2019-04-23T12:00:00Z,1556020800,2019,12,0,113.5,113.5,-66.012,29.797,-999.00,-0.92,-999.0,no,yes,no,300234066615940,SVP3GI,AOML,THOMAS_THOMPSON,South
2019-04-23T13:00:28Z,1556024429,2019,13,0,113.542,113.542,-66.017,29.793,-999.00,-0.92,-999.0,no,yes,no,300234066615940,SVP3GI,AOML,THOMAS_THOMPSON,South
2019-04-23T13:59:31Z,1556027971,2019,14,0,113.583,113.583,-66.023,29.795,-999.00,-0.95,-999.0,no,yes,no,300234066615940,SVP3GI,AOML,THOMAS_THOMPSON,South
2019-04-23T15:00:00Z,1556031600,2019,15,0,113.625,113.625,-66.027,29.802,-999.00,-0.95,-999.0,no,yes,no,300234066615940,SVP3GI,AOML,THOMAS_THOMPSON,South
2019-04-23T16:59:31Z,1556038771,2019,17,0,113.708,113.708,-66.031,29.82,-999.00,-0.92,-999.0,no,yes,no,300234066615940,SVP3GI,AOML,THOMAS_THOMPSON,South
2019-04-23T18:00:00Z,1556042400,2019,18,0,113.75,113.75,-66.031,29.828,-999.00,-0.92,-999.0,no,yes,no,300234066615940,SVP3GI,AOML,THOMAS_THOMPSON,South
2019-04-23T19:00:28Z,1556046029,2019,19,0,113.792,113.792,-66.029,29.832,-999.00,-0.92,-999.0,no,yes,no,300234066615940,SVP3GI,AOML,THOMAS_THOMPSON,South
2019-04-23T19:59:31Z,1556049571,2019,20,0,113.833,113.833,-66.025,29.83,-999.00,-0.95,-999.0,no,yes,no,300234066615940,SVP3GI,AOML,THOMAS_THOMPSON,South
2019-04-23T21:00:00Z,1556053200,2019,21,0,113.875,113.875,-66.021,29.825,-999.00,-0.95,-999.0,no,yes,no,300234066615940,SVP3GI,AOML,THOMAS_THOMPSON,South
2019-04-23T22:00:28Z,1556056829,2019,22,0,113.917,113.917,-66.017,29.818,-999.00,-0.95,-999.0,no,yes,no,300234066615940,SVP3GI,AOML,THOMAS_THOMPSON,South
2019-04-23T22:59:31Z,1556060371,2019,23,0,113.958,113.958,-66.016,29.811,-999.00,-0.92,-999.0,no,yes,no,300234066615940,SVP3GI,AOML,THOMAS_THOMPSON,South
2019-04-24T00:00:00Z,1556064000,2019,0,0,114.0,114.0,-66.018,29.809,-999.00,-0.92,-999.0,no,yes,no,300234066615940,SVP3GI,AOML,THOMAS_THOMPSON,South
2019-04-24T01:00:28Z,1556067629,2019,1,0,114.042,114.042,-66.022,29.806,-999.00,-0.92,-999.0,no,yes,no,300234066615940,SVP3GI,AOML,THOMAS_THOMPSON,South
2019-04-24T01:59:31Z,1556071171,2019,2,0,114.083,114.083,-66.027,29.805,-999.00,-0.92,-999.0,no,yes,no,300234066615940,SVP3GI,AOML,THOMAS_THOMPSON,South
2019-04-24T03:00:00Z,1556074800,2019,3,0,114.125,114.125,-66.032,29.807,-999.00,-0.95,-999.0,no,yes,no,300234066615940,SVP3GI,AOML,THOMAS_THOMPSON,South
2019-04-24T04:00:28Z,1556078429,2019,4,0,114.167,114.167,-66.035,29.811,-999.00,-0.95,-999.0,no,yes,no,300234066615940,SVP3GI,AOML,THOMAS_THOMPSON,South
2019-04-24T04:59:31Z,1556081971,2019,5,0,114.208,114.208,-66.038,29.817,-999.00,-0.95,-999.0,no,yes,no,300234066615940,SVP3GI,AOML,THOMAS_THOMPSON,South
2019-04-24T06:00:00Z,1556085600,2019,6,0,114.25,114.25,-66.037,29.826,-999.00,-0.95,-999.0,no,yes,no,300234066615940,SVP3GI,AOML,THOMAS_THOMPSON,South
2019-04-24T07:00:28Z,1556089229,2019,7,0,114.292,114.292,-66.035,29.837,-999.00,-0.95,-999.0,no,yes,no,300234066615940,SVP3GI,AOML,THOMAS_THOMPSON,South
2019-04-24T07:59:31Z,1556092771,2019,8,0,114.333,114.333,-66.031,29.846,-999.00,-0.95,-999.0,no,yes,no,300234066615940,SVP3GI,AOML,THOMAS_THOMPSON,South
2019-04-24T09:00:00Z,1556096400,2019,9,0,114.375,114.375,-66.027,29.853,-999.00,-0.92,-999.0,no,yes,no,300234066615940,SVP3GI,AOML,THOMAS_THOMPSON,South
2019-04-24T10:00:28Z,1556100029,2019,10,0,114.417,114.417,-66.023,29.853,-999.00,-0.92,-999.0,no,yes,no,300234066615940,SVP3GI,AOML,THOMAS_THOMPSON,South
2019-04-24T10:59:31Z,1556103571,2019,11,0,114.458,114.458,-66.02,29.848,-999.00,-0.92,-999.0,no,yes,no,300234066615940,SVP3GI,AOML,THOMAS_THOMPSON,South
2019-04-24T12:00:00Z,1556107200,2019,12,0,114.5,114.5,-66.019,29.833,-999.00,-0.95,-999.0,no,yes,no,300234066615940,SVP3GI,AOML,THOMAS_THOMPSON,South
2019-04-24T13:00:28Z,1556110829,2019,13,0,114.542,114.542,-66.02,29.818,-999.00,-0.95,-999.0,no,yes,no,300234066615940,SVP3GI,AOML,THOMAS_THOMPSON,South
2019-04-24T13:59:31Z,1556114371,2019,14,0,114.583,114.583,-66.022,29.805,-999.00,-0.95,-999.0,no,yes,no,300234066615940,SVP3GI,AOML,THOMAS_THOMPSON,South
2019-04-24T15:00:00Z,1556118000,2019,15,0,114.625,114.625,-66.025,29.798,-999.00,-0.95,-999.0,no,yes,no,300234066615940,SVP3GI,AOML,THOMAS_THOMPSON,South
2019-04-24T16:00:28Z,1556121629,2019,16,0,114.667,114.667,-66.029,29.795,-999.00,-0.95,-999.0,no,yes,no,300234066615940,SVP3GI,AOML,THOMAS_THOMPSON,South
2019-04-24T16:59:31Z,1556125171,2019,17,0,114.708,114.708,-66.032,29.798,-999.00,-0.95,-999.0,no,yes,no,300234066615940,SVP3GI,AOML,THOMAS_THOMPSON,South
2019-04-24T18:00:00Z,1556128800,2019,18,0,114.75,114.75,-66.033,29.805,-999.00,-0.95,-999.0,no,yes,no,300234066615940,SVP3GI,AOML,THOMAS_THOMPSON,South
2019-04-24T19:00:28Z,1556132429,2019,19,0,114.792,114.792,-66.033,29.81,-999.00,-0.95,-999.0,no,yes,no,300234066615940,SVP3GI,AOML,THOMAS_THOMPSON,South
2019-04-24T19:59:31Z,1556135971,2019,20,0,114.833,114.833,-66.032,29.813,-999.00,-0.95,-999.0,no,yes,no,300234066615940,SVP3GI,AOML,THOMAS_THOMPSON,South
2019-04-24T21:00:00Z,1556139600,2019,21,0,114.875,114.875,-66.032,29.813,-999.00,-0.95,-999.0,no,yes,no,300234066615940,SVP3GI,AOML,THOMAS_THOMPSON,South
2019-04-24T22:00:28Z,1556143229,2019,22,0,114.917,114.917,-66.028,29.812,-999.00,-0.95,-999.0,no,yes,no,300234066615940,SVP3GI,AOML,THOMAS_THOMPSON,South
2019-04-24T22:59:31Z,1556146771,2019,23,0,114.958,114.958,-66.027,29.807,-999.00,-0.95,-999.0,no,yes,no,300234066615940,SVP3GI,AOML,THOMAS_THOMPSON,South
2019-04-25T00:00:00Z,1556150400,2019,0,0,115.0,115.0,-66.027,29.807,-999.00,-0.99,-999.0,no,yes,no,300234066615940,SVP3GI,AOML,THOMAS_THOMPSON,South
2019-04-25T01:00:28Z,1556154029,2019,1,0,115.042,115.042,-66.027,29.792,-999.00,-0.95,-999.0,no,yes,no,300234066615940,SVP3GI,AOML,THOMAS_THOMPSON,South
2019-04-25T01:59:31Z,1556157571,2019,2,0,115.083,115.083,-66.029,29.787,-999.00,-0.99,-999.0,no,yes,no,300234066615940,SVP3GI,AOML,THOMAS_THOMPSON,South
2019-04-25T03:00:00Z,1556161200,2019,3,0,115.125,115.125,-66.032,29.782,-999.00,-0.95,-999.0,no,yes,no,300234066615940,SVP3GI,AOML,THOMAS_THOMPSON,South
2019-04-25T04:00:28Z,1556164829,2019,4,0,115.167,115.167,-66.035,29.778,-999.00,-0.95,-999.0,no,yes,no,300234066615940,SVP3GI,AOML,THOMAS_THOMPSON,South
2019-04-25T04:59:31Z,1556168371,2019,5,0,115.208,115.208,-66.038,29.778,-999.00,-0.95,-999.0,no,yes,no,300234066615940,SVP3GI,AOML,THOMAS_THOMPSON,South
2019-04-25T06:00:00Z,1556172000,2019,6,0,115.25,115.25,-66.041,29.781,-999.00,-0.95,-999.0,no,yes,no,300234066615940,SVP3GI,AOML,THOMAS_THOMPSON,South
2019-04-25T07:00:28Z,1556175629,2019,7,0,115.292,115.292,-66.041,29.781,-999.00,-0.95,-999.0,no,yes,no,300234066615940,SVP3GI,AOML,THOMAS_THOMPSON,South
2019-04-25T07:59:31Z,1556179171,2019,8,0,115.333,115.333,-66.041,29.79,-999.00,-0.99,-999.0,no,yes,no,300234066615940,SVP3GI,AOML,THOMAS_THOMPSON,South
2019-04-25T09:00:00Z,1556182800,2019,9,0,115.375,115.375,-66.039,29.792,-999.00,-0.95,-999.0,no,yes,no,300234066615940,SVP3GI,AOML,THOMAS_THOMPSON,South
2019-04-25T10:00:28Z,1556186429,2019,10,0,115.417,115.417,-66.037,29.792,-999.00,-0.95,-999.0,no,yes,no,300234066615940,SVP3GI,AOML,THOMAS_THOMPSON,South
2019-04-25T10:59:31Z,1556189971,2019,11,0,115.458,115.458,-66.034,29.789,-999.00,-0.95,-999.0,no,yes,no,300234066615940,SVP3GI,AOML,THOMAS_THOMPSON,South
2019-04-25T12:00:00Z,1556193600,2019,12,0,115.5,115.5,-66.031,29.783,-999.00,-0.95,-999.0,no,yes,no,300234066615940,SVP3GI,AOML,THOMAS_THOMPSON,South
2019-04-25T13:00:28Z,1556197229,2019,13,0,115.542,115.542,-66.029,29.775,-999.00,-0.99,-999.0,no,yes,no,300234066615940,SVP3GI,AOML,THOMAS_THOMPSON,South
2019-04-25T13:59:31Z,1556200771,2019,14,0,115.583,115.583,-66.027,29.767,-999.00,-0.99,-999.0,no,yes,no,300234066615940,SVP3GI,AOML,THOMAS_THOMPSON,South
2019-04-25T15:00:00Z,1556204400,2019,15,0,115.625,115.625,-66.027,29.757,-999.00,-0.99,-999.0,no,yes,no,300234066615940,SVP3GI,AOML,THOMAS_THOMPSON,South
2019-04-25T16:00:28Z,1556208029,2019,16,0,115.667,115.667,-66.028,29.747,-999.00,-0.99,-999.0,no,yes,no,300234066615940,SVP3GI,AOML,THOMAS_THOMPSON,South
2019-04-25T16:59:31Z,1556211571,2019,17,0,115.708,115.708,-66.03,29.743,-999.00,-0.99,-999.0,no,yes,no,300234066615940,SVP3GI,AOML,THOMAS_THOMPSON,South
2019-04-25T18:00:00Z,1556215200,2019,18,0,115.75,115.75,-66.031,29.738,-999.00,-1.02,-999.0,no,yes,no,300234066615940,SVP3GI,AOML,THOMAS_THOMPSON,South
2019-04-25T19:00:28Z,1556218829,2019,19,0,115.792,115.792,-66.033,29.736,-999.00,-0.99,-999.0,no,yes,no,300234066615940,SVP3GI,AOML,THOMAS_THOMPSON,South
2019-04-25T19:59:31Z,1556222371,2019,20,0,115.833,115.833,-66.035,29.736,-999.00,-1.02,-999.0,no,yes,no,300234066615940,SVP3GI,AOML,THOMAS_THOMPSON,South
2019-04-25T21:00:00Z,1556226000,2019,21,0,115.875,115.875,-66.037,29.739,-999.00,-1.02,-999.0,no,yes,no,300234066615940,SVP3GI,AOML,THOMAS_THOMPSON,South
2019-04-25T22:00:28Z,1556229629,2019,22,0,115.917,115.917,-66.037,29.744,-999.00,-1.02,-999.0,no,yes,no,300234066615940,SVP3GI,AOML,THOMAS_THOMPSON,South
2019-04-25T22:59:31Z,1556233171,2019,23,0,115.958,115.958,-66.036,29.748,-999.00,-1.02,-999.0,no,yes,no,300234066615940,SVP3GI,AOML,THOMAS_THOMPSON,South
2019-04-26T00:00:00Z,1556236800,2019,0,0,116.0,116.0,-66.035,29.752,-999.00,-1.02,-999.0,no,yes,no,300234066615940,SVP3GI,AOML,THOMAS_THOMPSON,South
2019-04-26T01:00:28Z,1556240429,2019,1,0,116.042,116.042,-66.035,29.752,-999.00,-1.02,-999.0,no,yes,no,300234066615940,SVP3GI,AOML,THOMAS_THOMPSON,South
2019-04-26T01:59:31Z,1556243971,2019,2,0,116.083,116.083,-66.033,29.75,-999.00,-1.02,-999.0,no,yes,no,300234066615940,SVP3GI,AOML,THOMAS_THOMPSON,South
2019-04-26T03:00:00Z,1556247600,2019,3,0,116.125,116.125,-66.031,29.744,-999.00,-1.02,-999.0,no,yes,no,300234066615940,SVP3GI,AOML,THOMAS_THOMPSON,South
2019-04-26T04:00:28Z,1556251229,2019,4,0,116.167,116.167,-66.031,29.74,-999.00,-1.02,-999.0,no,yes,no,300234066615940,SVP3GI,AOML,THOMAS_THOMPSON,South
2019-04-26T04:59:31Z,1556254771,2019,5,0,116.208,116.208,-66.033,29.737,-999.00,-1.02,-999.0,no,yes,no,300234066615940,SVP3GI,AOML,THOMAS_THOMPSON,South
2019-04-26T06:00:00Z,1556258400,2019,6,0,116.25,116.25,-66.035,29.734,-999.00,-1.02,-999.0,no,yes,no,300234066615940,SVP3GI,AOML,THOMAS_THOMPSON,South
2019-04-26T07:00:28Z,1556262029,2019,7,0,116.292,116.292,-66.037,29.73,-999.00,-1.02,-999.0,no,yes,no,300234066615940,SVP3GI,AOML,THOMAS_THOMPSON,South
2019-04-26T07:59:31Z,1556265571,2019,8,0,116.333,116.333,-66.037,29.73,-999.00,-1.02,-999.0,no,yes,no,300234066615940,SVP3GI,AOML,THOMAS_THOMPSON,South
2019-04-26T09:00:00Z,1556269200,2019,9,0,116.375,116.375,-66.042,29.727,-999.00,-1.02,-999.0,no,yes,no,300234066615940,SVP3GI,AOML,THOMAS_THOMPSON,South
2019-04-26T10:00:28Z,1556272829,2019,10,0,116.417,116.417,-66.045,29.729,-999.00,-1.02,-999.0,no,yes,no,300234066615940,SVP3GI,AOML,THOMAS_THOMPSON,South
2019-04-26T10:59:31Z,1556276371,2019,11,0,116.458,116.458,-66.048,29.733,-999.00,-1.02,-999.0,no,yes,no,300234066615940,SVP3GI,AOML,THOMAS_THOMPSON,South
2019-04-26T12:00:00Z,1556280000,2019,12,0,116.5,116.5,-66.049,29.739,-999.00,-1.02,-999.0,no,yes,no,300234066615940,SVP3GI,AOML,THOMAS_THOMPSON,South
2019-04-26T13:00:28Z,1556283629,2019,13,0,116.542,116.542,-66.049,29.739,-999.00,-1.02,-999.0,no,yes,no,300234066615940,SVP3GI,AOML,THOMAS_THOMPSON,South
2019-04-26T13:59:31Z,1556287171,2019,14,0,116.583,116.583,-66.048,29.745,-999.00,-1.02,-999.0,no,yes,no,300234066615940,SVP3GI,AOML,THOMAS_THOMPSON,South
2019-04-26T15:00:00Z,1556290800,2019,15,0,116.625,116.625,-66.048,29.745,-999.00,-1.02,-999.0,no,yes,no,300234066615940,SVP3GI,AOML,THOMAS_THOMPSON,South
2019-04-26T16:00:28Z,1556294429,2019,16,0,116.667,116.667,-66.047,29.743,-999.00,-1.02,-999.0,no,yes,no,300234066615940,SVP3GI,AOML,THOMAS_THOMPSON,South
2019-04-26T16:59:31Z,1556297971,2019,17,0,116.708,116.708,-66.046,29.74,-999.00,-1.02,-999.0,no,yes,no,300234066615940,SVP3GI,AOML,THOMAS_THOMPSON,South
2019-04-26T18:00:00Z,1556301600,2019,18,0,116.75,116.75,-66.046,29.732,-999.00,-1.06,-999.0,no,yes,no,300234066615940,SVP3GI,AOML,THOMAS_THOMPSON,South